Total_Precipitation_Accumulation
0.00 0.00 0.00 0.00 0.00 0.00 0.00 0.00 0.00 0.00 0.01 0.03 0.04 0.02 0.01 0.00 0.00 0.00 0.00 0.00 0.00 0.00 0.00 0.00 0.00 0.00 0.00 0.00 0.00 0.00 0.00 0.00 0.00 0.00 0.00 0.00 0.00 0.00 0.00 0.00 0.01 0.00 0.00
0.00 0.00 0.00 0.00 0.00 0.00 0.00 0.00 0.00 0.00 0.00 0.01 0.01 0.00 0.00 0.00 0.00 0.00 0.00 0.00 0.00 0.00 0.00 0.00 0.00 0.00 0.00 0.00 0.00 0.00 0.00 0.00 0.00 0.00 0.00 0.00 0.00 0.00 0.00 0.00 0.01 0.00 0.00
0.00 0.00 0.00 0.00 0.00 0.00 0.00 0.00 0.00 0.00 0.00 0.00 0.00 0.00 0.00 0.00 0.00 0.00 0.00 0.00 0.00 0.00 0.00 0.00 0.00 0.00 0.00 0.00 0.00 0.00 0.00 0.00 0.00 0.00 0.00 0.00 0.00 0.00 0.00 0.00 0.00 0.00 0.00
0.00 0.00 0.00 0.00 0.00 0.00 0.00 0.00 0.00 0.00 0.00 0.00 0.00 0.00 0.00 0.01 0.01 0.00 0.00 0.00 0.00 0.00 0.00 0.00 0.00 0.00 0.00 0.00 0.00 0.00 0.00 0.00 0.00 0.00 0.00 0.01 0.01 0.00 0.00 0.00 0.00 0.00 0.00
0.00 0.00 0.00 0.00 0.00 0.00 0.00 0.00 0.00 0.00 0.00 0.00 0.00 0.00 0.00 0.01 0.01 0.01 0.01 0.00 0.00 0.00 0.00 0.00 0.00 0.00 0.00 0.00 0.01 0.00 0.00 0.00 0.00 0.00 0.00 0.01 0.01 0.00 0.00 0.00 0.00 0.00 0.00
0.00 0.00 0.00 0.00 0.00 0.00 0.00 0.00 0.00 0.00 0.01 0.01 0.00 0.00 0.01 0.02 0.02 0.02 0.01 0.00 0.00 0.00 0.00 0.00 0.00 0.00 0.00 0.00 0.01 0.01 0.01 0.00 0.01 0.00 0.00 0.00 0.02 0.02 0.01 0.01 0.01 0.00 0.01
0.00 0.00 0.00 0.00 0.00 0.00 0.00 0.00 0.00 0.00 0.01 0.01 0.00 0.00 0.01 0.01 0.01 0.01 0.00 0.00 0.01 0.00 0.00 0.01 0.01 0.00 0.00 0.00 0.00 0.00 0.00 0.01 0.01 0.02 0.02 0.03 0.06 0.05 0.04 0.05 0.06 0.05 0.02
0.00 0.00 0.01 0.00 0.00 0.00 0.00 0.00 0.00 0.00 0.00 0.01 0.00 0.00 0.00 0.00 0.01 0.01 0.00 0.00 0.01 0.02 0.01 0.01 0.01 0.00 0.00 0.00 0.01 0.01 0.01 0.00 0.00 0.00 0.01 0.03 0.05 0.03 0.08 0.11 0.12 0.13 0.11
0.00 0.00 0.01 0.00 0.00 0.00 0.00 0.00 0.00 0.00 0.01 0.01 0.00 0.01 0.01 0.00 0.01 0.01 0.02 0.02 0.02 0.03 0.03 0.01 0.00 0.00 0.00 0.01 0.01 0.02 0.02 0.01 0.01 0.00 0.00 0.00 0.02 0.03 0.10 0.13 0.12 0.17 0.19
0.00 0.00 0.00 0.00 0.00 0.00 0.00 0.00 0.00 0.01 0.01 0.01 0.01 0.01 0.01 0.00 0.00 0.01 0.02 0.03 0.04 0.05 0.05 0.03 0.01 0.00 0.02 0.02 0.01 0.01 0.01 0.01 0.01 0.01 0.01 0.00 0.01 0.04 0.10 0.10 0.10 0.17 0.24
0.00 0.00 0.00 0.00 0.00 0.00 0.00 0.00 0.00 0.00 0.00 0.00 0.01 0.01 0.01 0.01 0.02 0.05 0.03 0.06 0.05 0.05 0.05 0.04 0.02 0.02 0.03 0.02 0.03 0.03 0.02 0.00 0.00 0.00 0.00 0.00 0.02 0.06 0.09 0.07 0.08 0.11 0.16
0.00 0.00 0.01 0.01 0.01 0.00 0.00 0.00 0.00 0.01 0.02 0.01 0.04 0.05 0.06 0.11 0.10 0.05 0.05 0.09 0.09 0.06 0.05 0.05 0.04 0.05 0.05 0.09 0.22 0.24 0.05 0.01 0.01 0.02 0.03 0.11 0.14 0.13 0.14 0.11 0.10 0.09 0.09
0.00 0.00 0.01 0.01 0.02 0.01 0.00 0.00 0.01 0.06 0.14 0.12 0.09 0.11 0.15 0.14 0.07 0.01 0.01 0.04 0.06 0.06 0.04 0.04 0.04 0.03 0.05 0.14 0.22 0.28 0.13 0.05 0.03 0.05 0.08 0.19 0.19 0.19 0.18 0.15 0.10 0.09 0.09
0.00 0.00 0.01 0.01 0.01 0.01 0.01 0.02 0.02 0.07 0.13 0.13 0.10 0.05 0.05 0.08 0.03 0.01 0.01 0.02 0.05 0.07 0.08 0.09 0.12 0.06 0.05 0.06 0.12 0.10 0.13 0.15 0.11 0.14 0.18 0.18 0.13 0.14 0.13 0.13 0.10 0.09 0.08
0.00 0.00 0.00 0.01 0.01 0.02 0.04 0.04 0.02 0.02 0.03 0.02 0.03 0.02 0.01 0.03 0.02 0.00 0.00 0.01 0.01 0.03 0.06 0.11 0.06 0.09 0.10 0.05 0.03 0.04 0.08 0.18 0.31 0.33 0.20 0.20 0.11 0.08 0.08 0.09 0.09 0.09 0.09
0.01 0.00 0.00 0.01 0.01 0.03 0.04 0.05 0.04 0.02 0.02 0.01 0.01 0.01 0.01 0.01 0.01 0.01 0.01 0.02 0.01 0.02 0.03 0.08 0.06 0.11 0.12 0.12 0.04 0.05 0.07 0.12 0.26 0.26 0.17 0.21 0.12 0.05 0.05 0.07 0.09 0.10 0.08
0.01 0.01 0.02 0.03 0.04 0.04 0.04 0.05 0.05 0.03 0.04 0.05 0.04 0.04 0.06 0.06 0.07 0.09 0.08 0.08 0.08 0.08 0.09 0.09 0.09 0.11 0.11 0.13 0.10 0.10 0.10 0.09 0.11 0.12 0.10 0.10 0.10 0.07 0.05 0.04 0.07 0.09 0.07
0.03 0.06 0.10 0.12 0.12 0.14 0.16 0.16 0.12 0.09 0.10 0.11 0.13 0.14 0.16 0.19 0.23 0.30 0.25 0.20 0.24 0.22 0.21 0.24 0.21 0.20 0.24 0.24 0.22 0.19 0.16 0.13 0.09 0.08 0.07 0.06 0.07 0.06 0.08 0.08 0.06 0.07 0.08
0.05 0.15 0.26 0.31 0.34 0.39 0.41 0.33 0.25 0.23 0.19 0.16 0.17 0.21 0.31 0.40 0.46 0.56 0.50 0.52 0.55 0.43 0.35 0.32 0.33 0.45 0.43 0.43 0.37 0.29 0.21 0.14 0.09 0.08 0.07 0.05 0.06 0.11 0.16 0.14 0.08 0.07 0.12
0.04 0.12 0.26 0.37 0.47 0.54 0.51 0.45 0.39 0.34 0.27 0.24 0.23 0.28 0.38 0.45 0.51 0.63 0.58 0.61 0.64 0.57 0.49 0.48 0.50 0.53 0.47 0.49 0.36 0.24 0.19 0.12 0.09 0.08 0.07 0.06 0.04 0.04 0.08 0.16 0.20 0.15 0.15
0.04 0.09 0.20 0.30 0.40 0.49 0.59 0.52 0.50 0.49 0.52 0.50 0.47 0.46 0.42 0.44 0.51 0.66 0.60 0.67 0.70 0.60 0.53 0.50 0.49 0.47 0.42 0.52 0.48 0.29 0.12 0.06 0.04 0.03 0.04 0.04 0.03 0.02 0.04 0.09 0.14 0.17 0.17
0.06 0.09 0.14 0.21 0.28 0.38 0.52 0.59 0.63 0.76 0.87 0.89 0.84 0.72 0.60 0.62 0.63 0.65 0.66 0.66 0.64 0.61 0.53 0.48 0.50 0.48 0.40 0.48 0.49 0.40 0.22 0.10 0.04 0.02 0.02 0.03 0.04 0.05 0.05 0.05 0.07 0.13 0.12
0.09 0.15 0.15 0.15 0.18 0.25 0.28 0.33 0.50 0.77 0.95 1.06 1.11 1.02 0.92 0.89 0.87 0.85 0.80 0.73 0.66 0.64 0.60 0.53 0.53 0.51 0.42 0.40 0.44 0.51 0.41 0.26 0.16 0.07 0.09 0.14 0.18 0.19 0.14 0.10 0.10 0.15 0.16
0.03 0.03 0.03 0.03 0.07 0.13 0.15 0.17 0.26 0.51 0.82 1.07 1.24 1.26 1.23 1.16 1.06 0.96 0.85 0.71 0.60 0.56 0.57 0.51 0.50 0.52 0.50 0.42 0.40 0.44 0.47 0.45 0.40 0.19 0.09 0.14 0.27 0.29 0.24 0.17 0.13 0.13 0.14
0.00 0.00 0.00 0.00 0.02 0.05 0.07 0.08 0.09 0.18 0.29 0.36 0.46 0.57 0.68 0.75 0.76 0.70 0.64 0.59 0.51 0.46 0.44 0.48 0.53 0.55 0.52 0.46 0.41 0.39 0.41 0.44 0.43 0.37 0.22 0.23 0.29 0.27 0.20 0.15 0.13 0.15 0.17
0.00 0.00 0.00 0.00 0.01 0.01 0.02 0.03 0.05 0.11 0.21 0.27 0.30 0.32 0.34 0.37 0.39 0.37 0.37 0.39 0.38 0.38 0.38 0.39 0.44 0.47 0.47 0.47 0.47 0.47 0.48 0.50 0.53 0.55 0.46 0.44 0.40 0.32 0.25 0.23 0.21 0.22 0.26